Location: Syracuse
(43.0480°N, 76.1480°W)
Time: 01:26:46
(UTC-04:00)

Daily predictions for brighter satellites

Satellite Brightness Start Highest point End
(mag) Time Altitude Azimuth Time Altitude Azimuth Time Altitude Azimuth
ALOS 2 3.1 00:06:32 42° E 00:07:12 46° ENE 00:11:25 10° N
CZ-4 R/B 3.7 00:02:38 10° NNE 00:07:24 71° ESE 00:08:08 60° SSE
Cosmos 1626 4.4 00:06:15 15° WSW 00:07:54 19° WNW 00:10:39 10° NNW
Mayak -0.8 00:04:21 10° NNE 00:08:13 45° E 00:08:13 45° E
Cosmos 1408 Rocket 3.9 00:07:39 48° SW 00:08:38 62° W 00:13:05 10° N
BREEZE-M DEB (TANK) 4.4 00:05:49 10° WNW 00:08:55 24° NNW 00:10:54 10° NE
Cosmos 1766 Rocket 4.3 00:08:57 37° SW 00:10:13 48° WNW 00:14:34 10° N
Cosmos 2297 4.1 00:06:55 24° SW 00:10:17 61° WNW 00:15:59 10° NNE
Cosmos 1703 4.3 00:12:19 33° WSW 00:13:05 36° WNW 00:16:43 10° N
Cosmos 2082 Rocket 2.8 00:07:58 10° NW 00:13:22 44° WSW 00:14:50 37° SW
Cosmos 1833 Rocket 3.5 00:08:44 10° NW 00:13:53 38° WSW 00:15:19 33° SW
Cosmos 371 Rocket 3.5 00:10:29 10° NNW 00:15:19 61° ENE 00:16:18 49° ESE
CZ-2C R/B 3.7 00:13:04 10° N 00:18:07 41° WNW 00:21:06 22° SW
Cosmos 2058 3.1 00:17:53 57° WSW 00:18:20 61° W 00:22:27 10° N
Cosmos 1515 Rocket 3.4 00:14:01 10° N 00:18:29 85° E 00:18:53 73° SSE
Cosmos 2151 2.9 00:18:32 71° SW 00:18:55 78° W 00:23:10 10° N
BREEZE-M R/B 4.2 00:16:49 10° WNW 00:22:35 68° SW 00:25:12 37° SE
H-2A R/B 2.7 00:23:20 39° E 00:23:42 40° ENE 00:27:34 10° N
Cosmos 1869 3.3 00:21:20 10° N 00:25:18 77° ENE 00:25:18 77° ENE
Meteor 2-14 Rocket 4.4 00:19:28 10° N 00:25:34 80° E 00:27:22 48° SSE
Cosmos 2074 Rocket 4.2 00:20:51 10° NNW 00:27:00 61° W 00:29:11 40° SSW
Cosmos 1943 Rocket 3.0 00:30:13 32° ESE 00:30:32 32° ESE 00:35:25 10° NE
Cosmos 1455 3.9 00:30:55 10° NW 00:33:56 23° W 00:34:03 23° W
CZ-4B R/B 3.6 00:29:54 10° NNE 00:35:09 61° E 00:35:58 54° SE
Meteor 2-21 4.5 00:29:39 10° NNW 00:35:40 70° W 00:37:26 46° SSW
Cosmos 332 Rocket 3.7 00:40:17 10° NNW 00:45:11 69° WSW 00:45:40 64° SW
DELTA 2 DEB (DPAF) 4.1 00:46:50 67° SW 00:47:04 69° WSW 00:51:32 10° NNW
deb Chang Zheng 4 4.2 00:44:28 10° NNE 00:48:38 44° E 00:48:38 44° E
ADEOS Rocket 3.1 00:50:11 10° N 00:56:11 73° WNW 00:58:38 40° SSW
Cosmos 1140 Rocket 3.5 00:55:09 55° SW 00:56:13 74° WNW 01:01:22 10° NNE
Cosmos 1892 3.7 00:57:28 38° ENE 00:57:28 38° ENE 01:00:29 10° NNE
Cosmos 614 Rocket 4.1 00:56:57 50° SW 00:58:09 68° WNW 01:03:17 10° NNE
Cosmos 2228 Rocket 4.0 00:55:56 10° NNW 01:00:00 35° W 01:00:15 35° W
COSMOS 2487 3.6 01:00:11 10° NNW 01:02:41 38° NW 01:02:41 38° NW
Cosmos 1741 Rocket 4.2 01:03:46 52° SE 01:04:23 55° ESE 01:09:32 10° NNE
CENTAUR R/B 4.0 00:58:00 10° NW 01:05:06 34° WSW 01:07:22 30° SW
Meteor 2-10 Rocket 4.2 01:03:59 10° NNW 01:08:49 40° W 01:09:40 37° WSW
CZ-4C R/B 4.1 01:09:48 40° W 01:09:48 40° W 01:12:59 10° NNW
Sich 1 3.2 01:11:02 58° E 01:11:07 58° E 01:15:27 10° NNE
Cosmos 1805 Rocket 3.4 01:11:27 84° SSE 01:11:34 88° ESE 01:16:01 10° N
Cosmos 1954 Rocket 4.4 01:11:12 41° WSW 01:12:37 55° WNW 01:17:42 10° NNE
deb Kosmos-1763 4.4 01:10:01 10° NNW 01:13:23 64° NNE 01:13:23 64° NNE
BREEZE-M DEB (TANK) 4.0 01:13:43 10° W 01:18:17 46° NNW 01:21:45 10° ENE
USA 234 3.4 01:13:29 10° NE 01:19:55 56° SE 01:21:30 45° S
Cosmos 2181 Rocket 4.0 01:18:53 48° SSW 01:20:47 81° W 01:27:04 10° N
Cosmos 2208 Rocket 4.4 01:16:19 10° NNW 01:21:40 59° ENE 01:23:28 39° SE
Cosmos 1818 4.1 01:22:31 10° NNW 01:27:56 55° NE 01:30:47 27° ESE
Cosmos 2341 Rocket 4.4 01:24:37 10° NNW 01:30:47 54° W 01:32:35 41° SW
Cosmos 1933 3.4 01:31:06 10° NNW 01:34:54 69° WNW 01:34:54 69° WNW
Lacrosse 4 Rocket 2.6 01:35:25 33° ESE 01:35:25 33° ESE 01:39:12 10° NE
Cosmos 1707 Rocket 3.5 01:31:13 10° NNW 01:35:36 70° W 01:35:41 70° WSW
SL-8 Rocket 4.0 01:29:47 10° NNW 01:36:04 73° W 01:37:55 47° SSW
Cosmos 304 Rocket 3.7 01:31:42 10° NNW 01:36:26 62° WSW 01:36:40 61° WSW
Cosmos 864 Rocket 4.4 01:30:18 10° N 01:36:36 83° E 01:38:38 46° SSE
Cosmos 1633 Rocket 2.9 01:36:22 76° SE 01:36:37 81° E 01:41:04 10° N
Cosmos 2369 Rocket 2.6 01:36:41 37° WSW 01:38:41 55° WNW 01:44:15 10° NNE
Cosmos 2218 Rocket 3.9 01:32:38 10° N 01:38:50 83° W 01:40:43 48° S
Cosmos 1782 4.3 01:37:40 10° NNE 01:41:08 28° ENE 01:41:56 26° E
Cosmos 1408 3.3 01:42:25 48° ENE 01:42:25 48° ENE 01:45:42 10° NNE
Mayak 0.9 01:41:00 10° NNW 01:43:36 16° WNW 01:44:50 15° W
Cosmos 1470 Rocket 3.9 01:46:14 50° ESE 01:46:44 53° E 01:51:05 10° NNE
MOS 1 Rocket 3.2 01:46:39 10° N 01:51:34 82° WNW 01:52:16 64° SSW
Cosmos 1570 Rocket 4.0 01:47:01 10° NNW 01:52:16 68° WSW 01:53:09 57° SSW
Cosmos 1656 Rocket 3.8 01:51:12 49° SSE 01:52:31 64° ESE 01:58:06 10° NNE
Meteor 2-3 Rocket 3.7 01:53:55 50° S 01:55:31 89° W 02:01:22 10° N
Cosmos 1825 2.2 01:58:43 68° E 01:58:43 68° E 02:02:22 10° NNE
H-2A R/B 4.0 02:00:26 16° W 02:00:26 16° W 02:02:35 10° NW
Cosmos 1666 Rocket 4.2 02:02:53 40° W 02:03:17 41° WNW 02:07:24 10° N
Cosmos 2366 rocket 4.1 01:58:37 10° NNW 02:04:38 57° W 02:06:25 42° SW
Cosmos 1763 Rocket 3.5 02:01:09 10° NNW 02:06:14 75° ENE 02:07:57 42° SE
Cosmos 1606 2.6 02:03:34 10° N 02:07:24 77° E 02:07:31 76° ESE
Cosmos 1933 Rocket 3.5 02:08:01 64° SSE 02:08:35 76° E 02:12:58 10° NNE
Cosmos 292 Rocket 4.1 02:06:30 10° NNW 02:11:18 63° ENE 02:13:13 35° SE
CZ-2D R/B 3.8 02:09:23 10° NE 02:13:43 25° E 02:16:20 17° SE
Cosmos 1943 Rocket 3.1 02:11:43 26° WSW 02:14:09 38° WNW 02:19:22 10° N
Nadezhda 3 Rocket 4.0 02:16:03 39° S 02:18:37 83° E 02:24:59 10° N
CRYOSAT 2 4.3 02:17:26 52° S 02:18:39 87° W 02:23:34 10° N
CZ-4B R/B 1.8 02:19:27 52° ENE 02:19:27 52° ENE 02:22:18 10° N
Cosmos 1862 4.4 02:18:55 30° ESE 02:19:45 34° E 02:23:21 10° NNE
Cosmos 1689 Rocket 3.1 02:20:12 42° ENE 02:20:12 42° ENE 02:23:04 10° N
SL-16 R/B 3.3 02:21:30 13° SE 02:26:45 48° ENE 02:32:38 10° N
Spot 2 4.1 02:22:42 10° NNE 02:26:58 65° ESE 02:27:45 52° SSE
ATLAS 5 CENTAUR R/B 4.0 02:26:36 28° SSE 02:29:21 45° ESE 02:45:35 10° NE
BREEZE M DEB (TANK) 4.0 02:21:39 10° W 02:29:24 39° NNW 02:32:17 10° NE
Resurs 1-4 Rocket 3.2 02:27:28 10° NNE 02:32:22 36° E 02:35:01 23° SSE
Cosmos 1814 Rocket 3.9 02:28:27 10° NNW 02:33:43 70° WSW 02:35:25 42° S
Cosmos 841 Rocket 3.4 02:34:11 10° NNW 02:39:25 81° WSW 02:41:33 36° S
GP-B 3.1 02:37:10 10° N 02:41:36 73° W 02:42:42 49° SSW
SL-08 R/B 3.9 02:41:50 20° SE 02:44:56 53° ENE 02:49:28 10° N
Cosmos 1869 Rocket 3.9 02:43:34 37° SSE 02:45:02 58° E 02:49:21 10° NNE
SL-8 R/B 3.5 02:44:48 10° WNW 02:49:39 76° SSW 02:54:27 10° SE
Meteor 2-6 Rocket 4.1 02:46:48 10° NNW 02:52:10 67° W 02:54:28 35° SSW
H-2A R/B 3.2 02:49:16 10° NNE 02:53:01 40° E 02:54:24 29° SE
Cosmos 2221 Rocket 4.1 02:50:57 10° N 02:55:20 58° E 02:57:57 23° SSE
Cosmos 1437 Rocket 2.9 02:55:46 42° S 02:57:03 74° E 03:01:09 10° NNE
Cosmos 2219 3.2 02:51:28 10° NNW 02:57:10 83° ENE 03:02:04 14° SSE
USA 229 DEB 3.8 02:51:44 10° NW 02:58:58 87° NE 03:06:25 10° SE
USA 229 3.8 02:51:51 10° NW 02:59:06 87° NE 03:06:32 10° SE
Okean 1-7 3.0 02:55:12 10° N 02:59:37 88° ENE 03:01:29 34° S
Cosmos 1867 4.1 02:57:21 27° WSW 03:00:05 53° NW 03:05:27 10° NNE
COSMOS 2455 2.8 02:54:47 10° NW 03:00:46 66° WSW 03:04:51 21° SSE
Genesis I 3.4 02:56:45 10° NNW 03:00:52 76° NE 03:04:15 14° SE
UNK 3.8 02:59:21 26° SSE 03:01:58 82° ENE 03:06:39 10° N
Landsat 5 4.2 03:02:22 32° W 03:02:26 32° W 03:05:56 10° NNW
USA 234 3.9 02:56:35 10° NE 03:02:52 52° NNW 03:08:50 12° WSW
BREEZE-M DEB (TANK) 3.1 02:57:50 15° WSW 03:03:29 70° NNW 03:05:59 10° ENE
Cosmos 1821 Rocket 4.2 02:57:43 10° NNW 03:03:54 57° W 03:07:10 28° SSW
Cosmos 1703 Rocket 3.6 03:00:00 10° NNW 03:04:20 59° W 03:05:41 39° SSW
Cosmos 1727 Rocket 4.4 03:08:03 18° SSE 03:12:41 59° E 03:18:49 10° NNE
Cosmos 836 Rocket 4.5 03:08:33 10° NNW 03:13:54 88° ENE 03:18:33 14° SSE
Lacrosse 4 Rocket 3.0 03:11:44 19° W 03:13:55 28° NW 03:17:49 10° N
IRS-1D 3.7 03:09:25 10° NNE 03:14:31 67° ESE 03:17:29 24° S
AQUA 3.8 03:10:03 10° NNE 03:14:50 84° WNW 03:17:10 31° SSW
SL-24 DEB 4.3 03:13:50 32° SSW 03:15:49 63° W 03:20:26 10° N
Cosmos 1782 4.3 03:14:18 10° NW 03:17:16 21° W 03:17:32 20° W
Fregat R/B Cluster 11 4.4 03:17:39 30° W 03:18:39 42° NW 03:22:34 10° NNE
Cosmos 2297 Rocket 3.1 03:13:32 10° NNW 03:19:03 51° ENE 03:24:32 10° SE
Cosmos 1354 Rocket 3.9 03:21:11 28° SSW 03:24:01 86° WNW 03:29:18 10° NNE
Meteor 1-27 Rocket 3.9 03:18:18 10° NNW 03:24:03 62° W 03:27:54 22° S
ATLAS CENTAUR R/B 1.3 03:24:32 34° S 03:26:01 63° ESE 03:30:00 10° NE
Cosmos 2227 Rocket 2.6 03:22:24 10° NNW 03:28:05 65° ENE 03:33:42 10° SE
Cosmos 44 3.4 03:25:57 28° SW 03:28:25 67° NW 03:33:25 10° NNE
Lacrosse 5 3.0 03:24:43 10° NW 03:29:36 46° NE 03:34:28 10° ESE
Cosmos 1733 Rocket 3.7 03:26:54 17° SSE 03:29:59 51° E 03:34:12 10° NNE
Cosmos 374 Rocket 4.5 03:26:38 10° NW 03:31:26 64° WSW 03:35:20 10° SSE
Cosmos 44 Rocket 3.3 03:29:14 27° SSW 03:31:53 82° SE 03:36:56 10° NE
Cosmos 968 Rocket 3.8 03:28:35 21° S 03:32:04 64° ESE 03:37:18 10° NNE
IRS-1C 4.1 03:27:16 10° N 03:32:37 74° WNW 03:36:01 23° SSW
ADEOS II 3.6 03:31:49 10° NNE 03:36:31 32° E 03:41:10 10° SSE
Cosmos 1656 4.2 03:34:57 17° S 03:39:10 56° ESE 03:44:42 10° NNE
Cosmos 1674 Rocket 4.4 03:36:55 10° N 03:41:07 49° ENE 03:45:18 10° SSE
Shenzhou-11 Module 4.1 03:44:12 14° SSE 03:44:26 15° SSE 03:46:10 10° ESE
Meteor 1-4 Rocket 3.4 03:46:08 25° SW 03:47:41 37° WNW 03:51:10 10° N
Cosmos 1503 Rocket 4.5 03:48:28 20° SW 03:51:45 47° WNW 03:56:46 10° N
CZ-2D R/B 3.8 03:48:14 10° NNE 03:52:26 62° E 03:55:57 13° S
CZ-2D R/B 2.7 03:48:54 10° N 03:53:57 45° WNW 03:57:40 18° SW
Cosmos 540 Rocket 4.4 03:50:56 10° NW 03:55:14 28° W 03:57:47 18° SW
Cosmos 389 Rocket 2.5 03:53:16 22° SSW 03:55:32 73° WNW 03:59:10 10° N
Helios 1A Rocket 3.5 03:51:59 10° NNE 03:55:57 54° E 03:59:42 11° S
SL-24 R/B - RUBIN 2 3.9 03:52:51 10° NNW 03:57:13 67° NE 04:01:42 10° SE
Cosmos 1184 Rocket 4.4 03:55:32 10° NW 03:57:52 18° W 03:58:24 18° WSW
Okean 1 4.4 03:54:04 10° N 03:57:54 45° ENE 04:01:42 10° SSE
Meteor 1-20 Rocket 4.5 03:53:01 10° S 03:58:32 72° E 04:04:17 10° NNE
ARIANE 5 R/B 2.6 03:54:16 10° N 03:59:13 65° WNW 04:03:07 16° SSW
Cosmos 1605 Rocket 4.4 03:54:34 10° NNW 04:00:16 42° W 04:05:06 14° SSW
Cosmos 192 4.3 03:55:57 10° NNW 04:00:57 87° WSW 04:05:54 10° SSE
Cosmos 2061 Rocket 4.4 03:57:05 10° N 04:03:18 66° E 04:09:32 10° SSE
GPS 2-04 Rocket1 3.8 04:01:20 19° SW 04:03:21 29° S 04:06:56 10° ESE
UNKNOWN OBJECT B 2.9 03:59:41 10° NNE 04:03:43 81° E 04:07:21 13° S
Cosmos 2082 3.7 03:59:37 10° NNW 04:05:18 87° WSW 04:10:55 10° SSE
Cosmos 1459 Rocket 4.1 03:59:40 10° N 04:06:05 83° E 04:12:27 10° S
SL-16 R/B 3.5 04:06:35 15° SW 04:10:34 28° W 04:15:47 10° NW
Resurs 1-4 Rocket 3.2 04:07:27 10° N 04:12:05 31° WNW 04:16:05 13° WSW
NOSS 3-1 (C) 4.2 04:05:42 10° NW 04:13:12 58° WSW 04:21:29 10° SSE
SAR-Lupe-2 3.5 04:10:47 10° S 04:14:19 64° WSW 04:17:53 10° NNW
Cosmos 2100 Rocket 4.0 04:09:00 10° N 04:15:11 79° W 04:21:25 10° S
ATLAS 2A CENTAUR R/B 4.3 04:08:13 11° WSW 04:18:17 28° S 04:24:24 10° SE
Cosmos 1697 Rocket 2.9 04:13:35 11° SSW 04:19:06 76° ESE 04:24:47 10° NNE
Cosmos 1812 3.8 04:19:38 10° NNW 04:22:58 28° W 04:25:50 12° SW
Okean 3 3.7 04:22:57 10° NNW 04:27:02 51° W 04:31:07 10° S
H-2A R/B 4.3 04:25:45 10° NNW 04:28:12 16° WNW 04:30:37 10° WSW
Meteor 1-18 Rocket 4.3 04:24:35 10° NNW 04:30:11 64° W 04:35:39 10° S
Okean O Rocket 4.4 04:28:00 10° NE 04:30:33 15° E 04:33:05 10° SE
Meteor 1-25 Rocket 4.4 04:26:37 10° SSW 04:32:04 56° WNW 04:37:32 10° N
Cosmos 1602 3.8 04:29:36 10° S 04:33:27 82° E 04:37:18 10° N
Lacrosse 5 rocket 3.1 04:30:41 10° S 04:34:22 27° SE 04:38:12 10° ENE
Cosmos 1633 4.1 04:34:39 11° WSW 04:37:18 21° WNW 04:40:08 10° NNW
Cosmos 2123 Rocket 4.1 04:36:37 10° S 04:42:48 84° E 04:49:01 10° N
Sich 1 Rocket 3.6 04:39:41 10° S 04:44:08 88° W 04:48:34 10° N
SeaSat 1 4.4 04:39:47 10° ESE 04:44:14 35° NE 04:48:42 10° N
Cosmos 2369 4.2 04:39:17 10° SW 04:44:42 47° WNW 04:50:10 10° NNE
BREEZE-M DEB (TANK) 4.4 04:42:15 10° W 04:44:59 22° SSW 04:50:32 10° SSE
Meteor 1-19 Rocket 4.2 04:40:08 10° N 04:45:41 89° E 04:51:12 10° S
SL-16 R/B 4.3 04:41:31 10° SSE 04:45:53 23° ESE 04:50:16 10° NE
Cosmos 1980 Rocket 2.4 04:41:18 10° SSW 04:46:52 73° ESE 04:52:31 10° NNE
ADEOS 4.1 04:43:08 10° N 04:48:06 46° WNW 04:53:04 10° SW
NOSS 3-1 (A) 4.4 04:43:19 10° NW 04:50:41 48° WSW 04:58:46 10° S
Meteor 1-13 Rocket 4.4 04:46:51 10° N 04:52:27 78° E 04:57:58 10° SSE
Okean 2 Rocket 3.9 04:48:34 10° S 04:52:52 54° E 04:57:14 10° NNE
Cosmos 2173 Rocket 4.4 04:47:54 10° NNW 04:53:35 42° W 04:59:15 10° SSW
